This is the latest recevied weather packets stored in our database for station/object OK1ALX-6. If no packets are shown the sender has not sent any weather packets the latest 10 day(s).
| Time | Temp. | Humidity | Pressure | Rain* | Wind** | Luminosity | Snow |
|---|---|---|---|---|---|---|---|
| 1777563003 | 15.56° C | 31% | 1033.5 hPa | 0 mm | - | 295 W/m² | - |
| 1777562403 | 15° C | 30% | 1033.9 hPa | 0 mm | - | 323 W/m² | - |
| 1777561803 | 14.44° C | 30% | 1033.9 hPa | 0 mm | - | 338 W/m² | - |
| 1777561203 | 15° C | 30% | 1033.8 hPa | 0 mm | - | 370 W/m² | - |
| 1777560603 | 14.44° C | 30% | 1033.8 hPa | 0 mm | - | 401 W/m² | - |
| 1777560003 | 14.44° C | 30% | 1033.9 hPa | 0 mm | - | 384 W/m² | - |
| 1777559403 | 14.44° C | 29% | 1033.9 hPa | 0 mm | - | 440 W/m² | - |
| 1777558803 | 14.44° C | 29% | 1034.2 hPa | 0 mm | - | 424 W/m² | - |
| 1777558203 | 14.44° C | 30% | 1034.1 hPa | 0 mm | - | 451 W/m² | - |
| 1777557604 | 14.44° C | 29% | 1034.4 hPa | 0 mm | - | 460 W/m² | - |
| 1777557003 | 14.44° C | 31% | 1034.2 hPa | 0 mm | - | 529 W/m² | - |
| 1777556403 | 13.33° C | 32% | 1034.8 hPa | 0 mm | - | 528 W/m² | - |
| 1777555803 | 13.33° C | 32% | 1034.7 hPa | 0 mm | - | 555 W/m² | - |
| 1777554603 | 13.33° C | 31% | 1034.8 hPa | 0 mm | - | 594 W/m² | - |
| 1777554003 | 13.33° C | 31% | 1035.4 hPa | 0 mm | - | 582 W/m² | - |
| 1777553403 | 13.33° C | 29% | 1035 hPa | 0 mm | - | 544 W/m² | - |
| 1777552803 | 13.33° C | 33% | 1035.2 hPa | 0 mm | - | 595 W/m² | - |
| 1777552203 | 13.33° C | 31% | 1035.4 hPa | 0 mm | - | 594 W/m² | - |
| 1777551603 | 13.89° C | 30% | 1035.5 hPa | 0 mm | - | 250 W/m² | - |
| 1777551003 | 13.33° C | 32% | 1035.5 hPa | 0 mm | - | 72 W/m² | - |
| 1777550403 | 12.78° C | 34% | 1035.7 hPa | 0 mm | - | 608 W/m² | - |
| 1777549803 | 12.22° C | 31% | 1036.1 hPa | 0 mm | - | 626 W/m² | - |
| 1777549203 | 12.22° C | 34% | 1036 hPa | 0 mm | - | 635 W/m² | - |
| 1777548604 | 11.67° C | 33% | 1036.3 hPa | 0 mm | - | 646 W/m² | - |
| 1777548003 | 11.67° C | 34% | 1036.5 hPa | 0 mm | - | 622 W/m² | - |
* Rain latest hour (hover to see other rain measurements)
** Current wind speed in m/s (hover to see current wind gust speed)